Location: Holyhead Bay
(53.3667°N, 4.6667°W)
Time: 19:54:22
(UTC+00:00)

CZ-2D R/B - Pass Details

Date: 24 November 2020
Orbit: 521 x 538 km, 97.4° (Epoch: 17 January)

Event Time Altitude Azimuth Distance (km) Brightness Sun altitude
Rises 17:32:25 0° 136° (SE) 2,651 6.6 -11.8°
Reaches altitude 10° 17:34:41 10° 124° (SE) 1,770 5.6 -12.1°
Maximum altitude 17:37:59 28° 65° (ENE) 1,011 4.1 -12.5°
Drops below altitude 10° 17:41:19 10° 5° (N) 1,790 5.7 -13.0°
Sets 17:43:38 0° 354° (N) 2,689 6.7 -13.3°
